This is the latest recevied weather packets stored in our database for station/object W1GK. If no packets are shown the sender has not sent any weather packets the latest 10 day(s).
| Time | Temp. | Humidity | Pressure | Rain* | Wind** | Luminosity | Snow |
|---|---|---|---|---|---|---|---|
| 1777738800 | 23.33° C | 13% | 1018 hPa | 0 mm | - | 643 W/m² | - |
| 1777738201 | 23.33° C | 13% | 1018 hPa | 0 mm | - | 619 W/m² | - |
| 1777737602 | 22.78° C | 14% | 1017.9 hPa | 0 mm | - | 513 W/m² | - |
| 1777737000 | 22.78° C | 14% | 1017.9 hPa | 0 mm | - | 448 W/m² | - |
| 1777736400 | 22.22° C | 13% | 1017.9 hPa | 0 mm | - | 534 W/m² | - |
| 1777735799 | 21.67° C | 13% | 1017.9 hPa | 0 mm | - | 475 W/m² | - |
| 1777735200 | 21.67° C | 14% | 1017.7 hPa | 0 mm | - | 441 W/m² | - |
| 1777734601 | 21.11° C | 14% | 1017.6 hPa | 0 mm | - | 427 W/m² | - |
| 1777734003 | 20.56° C | 14% | 1017.5 hPa | 0 mm | - | 410 W/m² | - |
| 1777732802 | 18.33° C | 16% | 1017.5 hPa | 0 mm | - | 315 W/m² | - |
| 1777732200 | 17.22° C | 17% | 1017.5 hPa | 0 mm | - | 262 W/m² | - |
| 1777731601 | 17.22° C | 17% | 1017.5 hPa | 0 mm | - | 202 W/m² | - |
| 1777730999 | 16.11° C | 17% | 1017.3 hPa | 0 mm | - | 156 W/m² | - |
| 1777730400 | 15.56° C | 17% | 1017.3 hPa | 0 mm | - | 151 W/m² | - |
| 1777729800 | 15° C | 18% | 1017.2 hPa | 0 mm | - | 125 W/m² | - |
| 1777729200 | 14.44° C | 18% | 1017 hPa | 0 mm | - | 100 W/m² | - |
| 1777728599 | 14.44° C | 18% | 1016.9 hPa | 0 mm | - | 63 W/m² | - |
| 1777728000 | 14.44° C | 18% | 1016.8 hPa | 0 mm | - | 28 W/m² | - |
| 1777727402 | 14.44° C | 18% | 1016.7 hPa | 0 mm | - | 21 W/m² | - |
| 1777726799 | 14.44° C | 18% | 1016.7 hPa | 0 mm | - | 14 W/m² | - |
| 1777726200 | 14.44° C | 17% | 1016.6 hPa | 0 mm | - | 7 W/m² | - |
| 1777725600 | 14.44° C | 17% | 1016.4 hPa | 0 mm | - | 0 W/m² | - |
| 1777725000 | 15° C | 17% | 1016.3 hPa | 0 mm | - | 0 W/m² | - |
| 1777724399 | 15° C | 17% | 1016.3 hPa | 0 mm | - | 0 W/m² | - |
| 1777723800 | 15° C | 17% | 1016.2 hPa | 0 mm | - | 0 W/m² | - |
* Rain latest hour (hover to see other rain measurements)
** Current wind speed in m/s (hover to see current wind gust speed)